Regional Weather Roundup
Issued by NWS Little Rock, AR

Home | Current Version | Previous Version | Graphics & Text | Print | Product List | Glossary On
Versions: 1 2 3 4 5 6 7 8 9 10 11 12 13 14 15 16 17 18 19 20 21 22 23 24 25 26 27 28 29 30 31 32 33 34 35 36 37 38 39 40 41 42 43 44 45 46 47 48 49 50
000
ASUS44 KLZK 200612
RWRLZK

WEATHER ROUNDUP FOR ARKANSAS
NATIONAL WEATHER SERVICE LITTLE ROCK AR
1200 AM CST FRI JAN 20 2017

NOTE: "FAIR" INDICATES FEW OR NO CLOUDS BELOW 12,000 FEET WITH NO
SIGNIFICANT WEATHER AND/OR OBSTRUCTIONS TO VISIBILITY.

ARZ001-003-010-029-200700-
NORTHWEST ARKANSAS

CITY           SKY/WX    TMP DP  RH WIND       PRES   REMARKS
FAYETTEVILLE   CLEAR     46  46 100 S6        29.62F
6HR MIN TEMP:  42; 6HR MAX TEMP:  50;

FORT SMITH     LGT RAIN  45  44  97 NE5       29.63F VSB 1/2
6HR MIN TEMP:  44; 6HR MAX TEMP:  51; 6HR PCP: TRACE;

HARRISON       CLOUDY    46  46 100 SE5       29.63F
6HR MIN TEMP:  45; 6HR MAX TEMP:  54;

BENTONVILLE      N/A    N/A N/A N/A CALM      29.62F VSB 1/2
ROGERS         CLEAR     45  44  97 S5        29.62F
6HR MIN TEMP:  44; 6HR MAX TEMP:  51;

SILOAM SPGS    CLEAR     46  45  93 S5        29.61F
6HR MIN TEMP:  45; 6HR MAX TEMP:  50;

HIGHFILL       FOG       42  41  96 S3        29.61F VSB 1/4
6HR MIN TEMP:  44; 6HR MAX TEMP:  50;

$$

ARZ004-005-016-200700-
NORTH CENTRAL ARKANSAS

CITY           SKY/WX    TMP DP  RH WIND       PRES   REMARKS
BATESVILLE     CLOUDY    52  48  87 SW12      29.69S
6HR MIN TEMP:  48; 6HR MAX TEMP:  52; 6HR PCP:  0.01;

FLIPPIN        PTCLDY    45  39  81 CALM      29.62F
6HR MIN TEMP:  45; 6HR MAX TEMP:  50;

MTN HOME       FOG       44  43  96 CALM      29.63F VSB 1/2
6HR MIN TEMP:  45; 6HR MAX TEMP:  49;

$$

ARZ040-041-200700-
WEST CENTRAL ARKANSAS

CITY           SKY/WX    TMP DP  RH WIND       PRES   REMARKS
MENA           CLOUDY    55  54  94 SW3       29.65F
MOUNT IDA      CLOUDY    55  49  80 VRB3      29.64F
6HR MIN TEMP:  53; 6HR MAX TEMP:  56;

$$

ARZ009-017-025-026-028-200700-
NORTHEAST ARKANSAS

CITY           SKY/WX    TMP DP  RH WIND       PRES   REMARKS
CORNING        CLOUDY    50  50 100 SW10G17   29.67F
JONESBORO      CLOUDY    53  52  96 SW12      29.69S FOG
6HR MIN TEMP:  51; 6HR MAX TEMP:  54; 6HR PCP:  0.04;

NEWPORT        CLOUDY    52  52 100 SW9       29.69F
6HR MIN TEMP:  49; 6HR MAX TEMP:  52;

WALNUT RIDGE   CLOUDY    50  46  87 S9        29.68S
6HR MIN TEMP:  48; 6HR MAX TEMP:  50; 6HR PCP:  0.07;

BLYTHEVILLE    MOCLDY    55  53  93 SW20G31   29.70R
6HR MIN TEMP:  54; 6HR MAX TEMP:  60; 6HR PCP:  0.01;

$$

ARZ022-023-033-042-044-200700-
CENTRAL ARKANSAS

CITY           SKY/WX    TMP DP  RH WIND       PRES   REMARKS
LITTLE ROCK    MOCLDY    53  53 100 SW7       29.70F
6HR MIN TEMP:  51; 6HR MAX TEMP:  54; 6HR PCP: TRACE;

JACKSONVILLE   MOCLDY    53  53  99 CALM      29.69S
6HR MIN TEMP:  52; 6HR MAX TEMP:  55;

SEARCY         CLOUDY    53  53 100 SW6       29.72S
6HR MIN TEMP:  50; 6HR MAX TEMP:  53; 6HR PCP:  0.01;

HOT SPRINGS    CLOUDY    55  52  89 S7        29.69F
6HR MIN TEMP:  53; 6HR MAX TEMP:  55;

RUSSELLVILLE   CLOUDY    51  49  92 SE3       29.66F
6HR MIN TEMP:  50; 6HR MAX TEMP:  52;

CLINTON        CLOUDY    52  52 100 CALM      29.68F FOG
$$

ARZ036-200700-
EAST ARKANSAS

CITY           SKY/WX    TMP DP  RH WIND       PRES   REMARKS
WEST MEMPHIS   CLOUDY    55  55 100 S10       29.70F
6HR MIN TEMP:  54; 6HR MAX TEMP:  59; 6HR PCP:  0.02;

$$

ARZ050-053-066-070-073-200700-
SOUTHWEST ARKANSAS

CITY           SKY/WX    TMP DP  RH WIND       PRES   REMARKS
ARKADELPHIA    CLOUDY    54  54 100 CALM      29.70F
CAMDEN         FOG       52  50  93 SE7       29.70F VSB 1/4
TEXARKANA      CLOUDY    54  54 100 SW17      29.68F
6HR MIN TEMP:  53; 6HR MAX TEMP:  56;

EL DORADO      CLOUDY    56  56 100 S7        29.71F
6HR MIN TEMP:  54; 6HR MAX TEMP:  58;

DE QUEEN       CLOUDY    55  54  96 S6        29.67F
6HR MIN TEMP:  53; 6HR MAX TEMP:  56;

$$

ARZ056-057-069-200700-
SOUTHEAST ARKANSAS

CITY           SKY/WX    TMP DP  RH WIND       PRES   REMARKS
PINE BLUFF     PTCLDY    55  54  96 S6        29.71F
6HR MIN TEMP:  55; 6HR MAX TEMP:  57;

STUTTGART      CLOUDY    55  50  82 SW10      29.72F
6HR MIN TEMP:  52; 6HR MAX TEMP:  55;

MONTICELLO     CLOUDY    58  56  93 S7        29.72F
6HR MIN TEMP:  56; 6HR MAX TEMP:  58;


$$





USA.gov is the U.S. government's official web portal to all federal, state and local government web resources and services.